When you browse on this site, cookies collect data to enhance your experience and personalize the content and advertising you see.
Visit our Privacy Policy to learn more. By continuing to use the site, you agree to this use of cookies and data.
  • In Romania
  • List of Countries
  • For 7 days
  • Water Temperature
  • Weather Map
  • Weather Widgets
  • user-avatar
    Login

    Hourly Weather Bissau

    Today, 21 August, Wednesday

    Time Temperature Precipitation Wind Pressure Humidity
    00:00 +27°C° 0 mm 4 mps 758 mmHg 94%
    01:00 +27°C° 0 mm 4 mps 758 mmHg 94%
    02:00 +26°C° 0 mm 4 mps 757 mmHg 94%
    03:00 +26°C° 0 mm 3 mps 757 mmHg 94%
    04:00 +26°C° 0 mm 3 mps 757 mmHg 95%
    05:00 +26°C° 0 mm 3 mps 757 mmHg 95%
    06:00 +27°C° 0 mm 3 mps 758 mmHg 92%
    07:00 +28°C° 0 mm 3 mps 758 mmHg 89%
    08:00 +29°C° 0 mm 3 mps 758 mmHg 86%
    09:00 +29°C° 0.1 mm 3 mps 758 mmHg 83%
    10:00 +30°C° 0.1 mm 2 mps 758 mmHg 80%
    11:00 +31°C° 0.1 mm 2 mps 758 mmHg 76%
    12:00 +31°C° 0.7 mm 3 mps 757 mmHg 76%
    13:00 +32°C° 0.7 mm 4 mps 757 mmHg 76%
    14:00 +33°C° 0.7 mm 4 mps 756 mmHg 76%
    15:00 +32°C° 1.2 mm 4 mps 756 mmHg 79%
    16:00 +30°C° 1.2 mm 4 mps 756 mmHg 83%
    17:00 +29°C° 1.2 mm 4 mps 756 mmHg 86%
    18:00 +28°C° 4 mm 4 mps 756 mmHg 89%
    19:00 +28°C° 4 mm 3 mps 757 mmHg 91%
    20:00 +27°C° 4 mm 2 mps 757 mmHg 94%
    21:00 +26°C° 6.3 mm 3 mps 757 mmHg 94%
    22:00 +26°C° 6.3 mm 3 mps 757 mmHg 95%
    23:00 +26°C° 6.3 mm 3 mps 758 mmHg 95%

    Tomorrow, 22 August, Thursday

    Time Temperature Precipitation Wind Pressure Humidity
    00:00 +26°C° 8.6 mm 4 mps 757 mmHg 95%
    01:00 +26°C° 8.6 mm 4 mps 757 mmHg 96%
    02:00 +26°C° 8.6 mm 5 mps 756 mmHg 96%
    03:00 +26°C° 1.5 mm 5 mps 756 mmHg 96%
    04:00 +26°C° 1.5 mm 5 mps 756 mmHg 96%
    05:00 +26°C° 1.5 mm 5 mps 756 mmHg 96%
    06:00 +26°C° 1.2 mm 5 mps 757 mmHg 95%
    07:00 +26°C° 1.2 mm 4 mps 757 mmHg 94%
    08:00 +26°C° 1.2 mm 4 mps 758 mmHg 93%
    09:00 +26°C° 5.6 mm 4 mps 758 mmHg 94%
    10:00 +26°C° 5.6 mm 5 mps 758 mmHg 95%
    11:00 +26°C° 5.6 mm 6 mps 758 mmHg 96%
    12:00 +26°C° 1.2 mm 7 mps 758 mmHg 95%
    13:00 +26°C° 1.2 mm 7 mps 758 mmHg 93%
    14:00 +26°C° 1.2 mm 8 mps 758 mmHg 92%
    15:00 +26°C° 0.7 mm 8 mps 757 mmHg 92%
    16:00 +26°C° 0.7 mm 7 mps 757 mmHg 92%
    17:00 +26°C° 0.7 mm 7 mps 757 mmHg 91%
    18:00 +26°C° 1.4 mm 7 mps 758 mmHg 91%
    19:00 +26°C° 1.4 mm 7 mps 758 mmHg 92%
    20:00 +26°C° 1.4 mm 7 mps 759 mmHg 92%
    21:00 +26°C° 1 mm 7 mps 759 mmHg 91%
    22:00 +26°C° 1 mm 7 mps 760 mmHg 91%
    23:00 +26°C° 1 mm 7 mps 760 mmHg 91%

    Day after tomorrow, 23 August, Friday

    Time Temperature Precipitation Wind Pressure Humidity
    00:00 +26°C° 0.8 mm 6 mps 759 mmHg 91%
    01:00 +26°C° 0.8 mm 6 mps 759 mmHg 91%
    02:00 +26°C° 0.8 mm 6 mps 759 mmHg 91%
    03:00 +26°C° 0.6 mm 6 mps 759 mmHg 92%
    04:00 +26°C° 0.6 mm 6 mps 759 mmHg 92%
    05:00 +26°C° 0.6 mm 6 mps 759 mmHg 93%
    06:00 +26°C° 0.3 mm 6 mps 759 mmHg 90%
    07:00 +27°C° 0.3 mm 6 mps 760 mmHg 88%
    08:00 +28°C° 0.3 mm 6 mps 760 mmHg 86%
    09:00 +29°C° 0.3 mm 7 mps 760 mmHg 83%
    10:00 +29°C° 0.3 mm 7 mps 760 mmHg 81%
    11:00 +30°C° 0.3 mm 7 mps 760 mmHg 78%
    12:00 +30°C° 0.3 mm 7 mps 759 mmHg 76%
    13:00 +30°C° 0.3 mm 7 mps 759 mmHg 74%
    14:00 +32°C° 0.3 mm 8 mps 759 mmHg 73%
    15:00 +30°C° 0 mm 7 mps 759 mmHg 76%
    16:00 +29°C° 0 mm 7 mps 759 mmHg 78%
    17:00 +28°C° 0 mm 6 mps 759 mmHg 81%
    18:00 +28°C° 0 mm 6 mps 759 mmHg 83%
    19:00 +27°C° 0 mm 5 mps 760 mmHg 86%
    20:00 +27°C° 0 mm 5 mps 760 mmHg 88%
    21:00 +27°C° 0.3 mm 5 mps 761 mmHg 89%
    22:00 +27°C° 0.3 mm 5 mps 761 mmHg 89%
    23:00 +26°C° 0.3 mm 5 mps 761 mmHg 90%

    24 August, Saturday

    Time Temperature Precipitation Wind Pressure Humidity
    00:00 +26°C° 0.3 mm 5 mps 760 mmHg 91%
    01:00 +26°C° 0.3 mm 5 mps 760 mmHg 91%
    02:00 +26°C° 0.3 mm 5 mps 759 mmHg 91%
    03:00 +26°C° 0.6 mm 4 mps 759 mmHg 92%
    04:00 +26°C° 0.6 mm 4 mps 759 mmHg 92%
    05:00 +26°C° 0.6 mm 4 mps 759 mmHg 93%
    06:00 +27°C° 0.9 mm 4 mps 760 mmHg 90%
    07:00 +27°C° 0.9 mm 4 mps 760 mmHg 87%
    08:00 +28°C° 0.9 mm 4 mps 760 mmHg 85%
    09:00 +29°C° 1.4 mm 5 mps 760 mmHg 84%
    10:00 +29°C° 1.4 mm 5 mps 760 mmHg 82%
    11:00 +30°C° 1.4 mm 6 mps 760 mmHg 81%
    12:00 +30°C° 0.7 mm 6 mps 759 mmHg 81%
    13:00 +30°C° 0.7 mm 7 mps 759 mmHg 80%
    14:00 +30°C° 0.7 mm 7 mps 759 mmHg 79%
    15:00 +29°C° 0.4 mm 7 mps 758 mmHg 81%
    16:00 +29°C° 0.4 mm 7 mps 758 mmHg 83%
    17:00 +28°C° 0.4 mm 7 mps 758 mmHg 85%
    18:00 +28°C° 0.3 mm 6 mps 759 mmHg 86%
    19:00 +27°C° 0.3 mm 5 mps 759 mmHg 88%
    20:00 +27°C° 0.3 mm 5 mps 760 mmHg 90%
    21:00 +27°C° 0.1 mm 5 mps 760 mmHg 90%
    22:00 +27°C° 0.1 mm 5 mps 760 mmHg 90%
    23:00 +27°C° 0.1 mm 5 mps 760 mmHg 91%

    25 August, Sunday

    Time Temperature Precipitation Wind Pressure Humidity
    00:00 +26°C° 1.4 mm 5 mps 759 mmHg 91%
    01:00 +26°C° 1.4 mm 5 mps 759 mmHg 92%
    02:00 +26°C° 1.4 mm 4 mps 759 mmHg 92%
    03:00 +26°C° 1.1 mm 4 mps 758 mmHg 93%
    04:00 +26°C° 1.1 mm 4 mps 758 mmHg 93%
    05:00 +26°C° 1.1 mm 4 mps 758 mmHg 94%
    06:00 +26°C° 0.7 mm 4 mps 758 mmHg 92%
    07:00 +27°C° 0.7 mm 4 mps 759 mmHg 91%
    08:00 +27°C° 0.7 mm 4 mps 759 mmHg 90%
    09:00 +27°C° 1.3 mm 5 mps 759 mmHg 89%
    10:00 +28°C° 1.3 mm 5 mps 759 mmHg 88%
    11:00 +28°C° 1.3 mm 6 mps 759 mmHg 87%
    12:00 +28°C° 1.6 mm 6 mps 758 mmHg 89%
    13:00 +27°C° 1.6 mm 6 mps 758 mmHg 90%
    14:00 +27°C° 1.6 mm 6 mps 758 mmHg 92%
    15:00 +27°C° 1.8 mm 5 mps 758 mmHg 93%
    16:00 +26°C° 1.8 mm 5 mps 758 mmHg 94%
    17:00 +26°C° 1.8 mm 5 mps 758 mmHg 95%
    18:00 +26°C° 5.9 mm 4 mps 758 mmHg 96%
    19:00 +26°C° 5.9 mm 3 mps 759 mmHg 97%
    20:00 +25°C° 5.9 mm 3 mps 759 mmHg 98%
    21:00 +25°C° 3.5 mm 2 mps 759 mmHg 97%
    22:00 +25°C° 3.5 mm 2 mps 759 mmHg 97%
    23:00 +25°C° 3.5 mm 2 mps 759 mmHg 97%

    26 August, Monday

    Time Temperature Precipitation Wind Pressure Humidity
    00:00 +25°C° 0 mm 2 mps 759 mmHg 97%
    01:00 +25°C° 0 mm 2 mps 758 mmHg 97%
    02:00 +25°C° 0 mm 2 mps 758 mmHg 97%
    03:00 +25°C° 0.9 mm 2 mps 758 mmHg 97%
    04:00 +25°C° 0.9 mm 2 mps 758 mmHg 97%
    05:00 +25°C° 0.9 mm 2 mps 758 mmHg 97%
    06:00 +25°C° 1.7 mm 2 mps 758 mmHg 96%
    07:00 +26°C° 1.7 mm 2 mps 758 mmHg 95%
    08:00 +26°C° 1.7 mm 2 mps 759 mmHg 94%
    09:00 +27°C° 1.1 mm 3 mps 759 mmHg 92%
    10:00 +27°C° 1.1 mm 3 mps 759 mmHg 90%
    11:00 +28°C° 1.1 mm 4 mps 759 mmHg 88%
    12:00 +28°C° 0.3 mm 4 mps 759 mmHg 84%
    13:00 +29°C° 0.3 mm 4 mps 758 mmHg 80%
    14:00 +30°C° 0.3 mm 5 mps 758 mmHg 76%
    15:00 +29°C° 0.7 mm 5 mps 758 mmHg 80%
    16:00 +28°C° 0.7 mm 5 mps 758 mmHg 84%
    17:00 +27°C° 0.7 mm 6 mps 758 mmHg 87%
    18:00 +26°C° 0.2 mm 5 mps 758 mmHg 89%
    19:00 +26°C° 0.2 mm 5 mps 759 mmHg 91%
    20:00 +26°C° 0.2 mm 5 mps 760 mmHg 92%
    21:00 +26°C° 0 mm 5 mps 760 mmHg 93%
    22:00 +26°C° 0 mm 5 mps 760 mmHg 93%
    23:00 +26°C° 0 mm 4 mps 760 mmHg 93%
    Show more